Time,TemperatureF,DewpointF,PressureIn,WindDirection,WindDirectionDegrees,WindSpeedMPH,WindSpeedGustMPH,Humidity,HourlyPrecipIn,Conditions,Clouds,dailyrainin,SoftwareType,DateUTC
2013-05-30 00:01:00,69.5,61.2,30.27,NE,45,4.0,4.0,75,0.00,,CLR,0.00,VWS V14.01,2013-05-30 04:01:00,
2013-05-30 00:06:00,69.7,61.4,30.27,NE,45,4.0,4.0,75,0.00,,CLR,0.00,VWS V14.01,2013-05-30 04:06:00,
2013-05-30 00:11:00,69.9,61.6,30.27,NE,45,4.0,4.0,75,0.00,,CLR,0.00,VWS V14.01,2013-05-30 04:11:00,
2013-05-30 00:16:00,70.0,61.7,30.27,NE,45,4.0,4.0,75,0.00,,CLR,0.00,VWS V14.01,2013-05-30 04:16:00,
2013-05-30 00:21:00,69.9,61.2,30.24,NE,45,4.0,4.0,74,0.00,,CLR,0.00,VWS V14.01,2013-05-30 04:21:00,
2013-05-30 00:26:00,69.9,61.2,30.24,NE,45,4.0,4.0,74,0.00,,CLR,0.00,VWS V14.01,2013-05-30 04:26:00,
2013-05-30 00:31:00,69.9,61.2,30.27,NE,45,4.0,4.0,74,0.00,,CLR,0.00,VWS V14.01,2013-05-30 04:31:00,
2013-05-30 00:36:00,69.9,61.6,30.27,NE,45,4.0,4.0,75,0.00,,CLR,0.00,VWS V14.01,2013-05-30 04:36:00,
2013-05-30 00:41:00,69.9,61.2,30.27,NE,45,4.0,4.0,74,0.00,,CLR,0.00,VWS V14.01,2013-05-30 04:41:00,
2013-05-30 00:46:00,69.9,61.2,30.27,NE,45,4.0,4.0,74,0.00,,CLR,0.00,VWS V14.01,2013-05-30 04:46:00,
2013-05-30 00:51:00,69.7,61.0,30.27,NE,45,4.0,4.0,74,0.00,,CLR,0.00,VWS V14.01,2013-05-30 04:51:00,
2013-05-30 00:56:00,69.7,61.0,30.27,NE,45,4.0,4.0,74,0.00,,CLR,0.00,VWS V14.01,2013-05-30 04:56:00,
2013-05-30 01:01:00,69.5,61.2,30.27,NE,45,4.0,4.0,75,0.00,,CLR,0.00,VWS V14.01,2013-05-30 05:01:00,
2013-05-30 01:06:00,69.5,61.2,30.27,NE,45,4.0,4.0,75,0.00,,CLR,0.00,VWS V14.01,2013-05-30 05:06:00,
2013-05-30 01:11:00,69.3,61.0,30.27,NE,45,4.0,4.0,75,0.00,,CLR,0.00,VWS V14.01,2013-05-30 05:11:00,
2013-05-30 01:16:00,69.1,60.8,30.27,West,270,1.5,1.5,75,0.00,,CLR,0.00,VWS V14.01,2013-05-30 05:16:00,
2013-05-30 01:21:00,69.1,60.8,30.27,West,270,1.5,1.5,75,0.00,,CLR,0.00,VWS V14.01,2013-05-30 05:21:00,
2013-05-30 01:26:00,69.1,61.2,30.27,West,270,1.5,1.5,76,0.00,,CLR,0.00,VWS V14.01,2013-05-30 05:26:00,
2013-05-30 01:31:00,69.1,61.2,30.27,West,270,1.5,1.5,76,0.00,,CLR,0.00,VWS V14.01,2013-05-30 05:31:00,
2013-05-30 01:36:00,69.1,61.2,30.27,West,270,1.5,1.5,76,0.00,,CLR,0.00,VWS V14.01,2013-05-30 05:36:00,
2013-05-30 01:41:00,69.0,61.1,30.27,West,270,1.5,1.5,76,0.00,,CLR,0.00,VWS V14.01,2013-05-30 05:41:00,
2013-05-30 01:46:00,68.8,60.9,30.27,West,270,1.5,1.5,76,0.00,,CLR,0.00,VWS V14.01,2013-05-30 05:46:00,
2013-05-30 01:51:00,68.8,60.9,30.27,West,270,1.5,1.5,76,0.00,,CLR,0.00,VWS V14.01,2013-05-30 05:51:00,
2013-05-30 01:56:00,68.4,60.9,30.27,West,270,1.5,1.5,77,0.00,,CLR,0.00,VWS V14.01,2013-05-30 05:56:00,
2013-05-30 02:01:00,68.2,61.1,30.27,West,270,1.5,1.5,78,0.00,,CLR,0.00,VWS V14.01,2013-05-30 06:01:00,
2013-05-30 02:06:00,68.1,60.6,30.27,West,270,1.5,1.5,77,0.00,,CLR,0.00,VWS V14.01,2013-05-30 06:06:00,
2013-05-30 02:11:00,68.1,61.0,30.27,West,270,1.5,1.5,78,0.00,,CLR,0.00,VWS V14.01,2013-05-30 06:11:00,
2013-05-30 02:16:00,67.9,60.8,30.27,West,270,1.5,1.5,78,0.00,,CLR,0.00,VWS V14.01,2013-05-30 06:16:00,
2013-05-30 02:21:00,67.7,60.6,30.27,West,270,1.5,1.5,78,0.00,,CLR,0.00,VWS V14.01,2013-05-30 06:21:00,
2013-05-30 02:26:00,67.7,61.0,30.27,West,270,1.5,1.5,79,0.00,,CLR,0.00,VWS V14.01,2013-05-30 06:26:00,
2013-05-30 02:31:00,67.5,60.8,30.27,West,270,1.5,1.5,79,0.00,,CLR,0.00,VWS V14.01,2013-05-30 06:31:00,
2013-05-30 02:36:00,67.3,60.6,30.27,West,270,1.5,1.5,79,0.00,,CLR,0.00,VWS V14.01,2013-05-30 06:36:00,
2013-05-30 02:41:00,67.2,60.5,30.27,West,270,1.5,1.5,79,0.00,,CLR,0.00,VWS V14.01,2013-05-30 06:41:00,
2013-05-30 02:46:00,67.0,60.7,30.26,West,270,1.5,1.5,80,0.00,,CLR,0.00,VWS V14.01,2013-05-30 06:46:00,
2013-05-30 02:51:00,66.8,60.5,30.26,West,270,1.5,1.5,80,0.00,,CLR,0.00,VWS V14.01,2013-05-30 06:51:00,
2013-05-30 02:56:00,66.6,60.3,30.26,West,270,1.5,1.5,80,0.00,,CLR,0.00,VWS V14.01,2013-05-30 06:56:00,
2013-05-30 03:01:00,66.4,60.4,30.26,West,270,1.5,1.5,81,0.00,,CLR,0.00,VWS V14.01,2013-05-30 07:01:00,
2013-05-30 03:06:00,66.3,60.0,30.26,West,270,1.5,1.5,80,0.00,,CLR,0.00,VWS V14.01,2013-05-30 07:06:00,
2013-05-30 03:11:00,66.3,60.3,30.26,West,270,1.5,1.5,81,0.00,,CLR,0.00,VWS V14.01,2013-05-30 07:11:00,
2013-05-30 03:16:00,66.1,60.1,30.26,West,270,1.5,1.5,81,0.00,,CLR,0.00,VWS V14.01,2013-05-30 07:16:00,
2013-05-30 03:21:00,66.1,60.1,30.26,West,270,1.5,1.5,81,0.00,,CLR,0.00,VWS V14.01,2013-05-30 07:21:00,
2013-05-30 03:26:00,65.9,60.3,30.26,West,270,1.5,1.5,82,0.00,,CLR,0.00,VWS V14.01,2013-05-30 07:26:00,
2013-05-30 03:31:00,65.7,60.1,30.26,West,270,1.5,1.5,82,0.00,,CLR,0.00,VWS V14.01,2013-05-30 07:31:00,
2013-05-30 03:36:00,65.5,59.9,30.26,West,270,1.5,1.5,82,0.00,,CLR,0.00,VWS V14.01,2013-05-30 07:36:00,
2013-05-30 03:41:00,65.4,59.8,30.23,West,270,1.5,1.5,82,0.00,,CLR,0.00,VWS V14.01,2013-05-30 07:41:00,
2013-05-30 03:46:00,65.2,59.6,30.26,West,270,1.5,1.5,82,0.00,,CLR,0.00,VWS V14.01,2013-05-30 07:46:00,
2013-05-30 03:51:00,65.0,59.8,30.26,West,270,1.5,1.5,83,0.00,,CLR,0.00,VWS V14.01,2013-05-30 07:51:00,
2013-05-30 03:56:00,65.0,59.8,30.26,West,270,1.5,1.5,83,0.00,,CLR,0.00,VWS V14.01,2013-05-30 07:56:00,
2013-05-30 04:01:00,64.8,59.6,30.26,West,270,1.5,1.5,83,0.00,,CLR,0.00,VWS V14.01,2013-05-30 08:01:00,
2013-05-30 04:06:00,64.8,59.9,30.26,West,270,1.5,1.5,84,0.00,,CLR,0.00,VWS V14.01,2013-05-30 08:06:00,
2013-05-30 04:11:00,64.7,59.7,30.27,West,270,1.5,1.5,84,0.00,,CLR,0.00,VWS V14.01,2013-05-30 08:11:00,
2013-05-30 04:15:00,64.6,59.6,30.26,West,270,1.5,1.5,84,0.00,,CLR,0.00,VWS V14.01,2013-05-30 08:15:00,
2013-05-30 04:20:00,64.2,59.2,30.26,West,270,1.5,1.5,84,0.00,,CLR,0.00,VWS V14.01,2013-05-30 08:20:00,
2013-05-30 04:25:00,64.0,58.7,30.27,West,270,1.5,1.5,83,0.00,,CLR,0.00,VWS V14.01,2013-05-30 08:25:00,
2013-05-30 04:30:00,63.8,58.5,30.27,West,270,1.5,1.5,83,0.00,,CLR,0.00,VWS V14.01,2013-05-30 08:30:00,
2013-05-30 04:35:00,63.8,58.5,30.27,West,270,1.5,1.5,83,0.00,,CLR,0.00,VWS V14.01,2013-05-30 08:35:00,
2013-05-30 04:40:00,63.7,58.4,30.27,West,270,1.5,1.5,83,0.00,,CLR,0.00,VWS V14.01,2013-05-30 08:40:00,
2013-05-30 04:45:00,63.5,58.5,30.27,West,270,1.5,1.5,84,0.00,,CLR,0.00,VWS V14.01,2013-05-30 08:45:00,
2013-05-30 04:50:00,63.3,58.3,30.27,West,270,1.5,1.5,84,0.00,,CLR,0.00,VWS V14.01,2013-05-30 08:50:00,
2013-05-30 04:55:00,63.1,58.2,30.27,West,270,1.5,1.5,84,0.00,,CLR,0.00,VWS V14.01,2013-05-30 08:55:00,
2013-05-30 05:00:00,63.1,58.2,30.27,West,270,1.5,1.5,84,0.00,,CLR,0.00,VWS V14.01,2013-05-30 09:00:00,
2013-05-30 05:05:00,62.9,58.3,30.27,West,270,1.5,1.5,85,0.00,,CLR,0.00,VWS V14.01,2013-05-30 09:05:00,
2013-05-30 05:10:00,62.8,58.2,30.28,West,270,1.5,1.5,85,0.00,,CLR,0.00,VWS V14.01,2013-05-30 09:10:00,
2013-05-30 05:15:00,62.8,58.2,30.28,West,270,1.5,1.5,85,0.00,,CLR,0.00,VWS V14.01,2013-05-30 09:15:00,
2013-05-30 05:20:00,62.8,58.2,30.28,West,270,1.5,1.5,85,0.00,,CLR,0.00,VWS V14.01,2013-05-30 09:20:00,
2013-05-30 05:25:00,62.8,58.2,30.28,West,270,1.5,1.5,85,0.00,,CLR,0.00,VWS V14.01,2013-05-30 09:25:00,
2013-05-30 05:30:00,62.4,57.8,30.28,West,270,1.5,1.5,85,0.00,,CLR,0.00,VWS V14.01,2013-05-30 09:30:00,
2013-05-30 05:35:00,62.2,57.6,30.28,West,270,1.5,1.5,85,0.00,,CLR,0.00,VWS V14.01,2013-05-30 09:35:00,
2013-05-30 05:40:00,62.0,57.4,30.28,West,270,1.5,1.5,85,0.00,,CLR,0.00,VWS V14.01,2013-05-30 09:40:00,
2013-05-30 05:45:00,62.0,57.4,30.29,West,270,1.5,1.5,85,0.00,,CLR,0.00,VWS V14.01,2013-05-30 09:45:00,
2013-05-30 05:50:00,61.9,57.7,30.29,West,270,1.5,1.5,86,0.00,,CLR,0.00,VWS V14.01,2013-05-30 09:50:00,
2013-05-30 05:55:00,61.7,57.5,30.29,West,270,1.5,1.5,86,0.00,,CLR,0.00,VWS V14.01,2013-05-30 09:55:00,
2013-05-30 06:00:00,61.7,57.5,30.29,West,270,1.5,1.5,86,0.00,,CLR,0.00,VWS V14.01,2013-05-30 10:00:00,
2013-05-30 06:05:00,61.7,57.5,30.30,West,270,1.5,1.5,86,0.00,,FEW250,0.00,VWS V14.01,2013-05-30 10:05:00,
2013-05-30 06:10:00,61.5,57.3,30.30,West,270,1.5,1.5,86,0.00,,FEW250,0.00,VWS V14.01,2013-05-30 10:10:00,
2013-05-30 06:15:00,61.3,57.4,30.30,West,270,1.5,1.5,87,0.00,,FEW250,0.00,VWS V14.01,2013-05-30 10:15:00,
2013-05-30 06:20:00,61.3,57.1,30.30,West,270,1.5,1.5,86,0.00,,FEW250,0.00,VWS V14.01,2013-05-30 10:20:00,
2013-05-30 06:25:00,61.5,57.6,30.31,West,270,1.5,1.5,87,0.00,,FEW250,0.00,VWS V14.01,2013-05-30 10:25:00,
2013-05-30 06:30:00,61.5,57.6,30.31,West,270,1.5,1.5,87,0.00,,FEW250,0.00,VWS V14.01,2013-05-30 10:30:00,
2013-05-30 06:35:00,61.5,57.6,30.31,West,270,1.5,1.5,87,0.00,,FEW250,0.00,VWS V14.01,2013-05-30 10:35:00,
2013-05-30 06:40:00,61.7,57.8,30.32,West,270,1.5,1.5,87,0.00,,FEW250,0.00,VWS V14.01,2013-05-30 10:40:00,
2013-05-30 06:45:00,61.5,57.6,30.32,West,270,1.5,1.5,87,0.00,,FEW250,0.00,VWS V14.01,2013-05-30 10:45:00,
2013-05-30 06:50:00,61.5,57.6,30.32,West,270,1.5,1.5,87,0.00,,FEW250,0.00,VWS V14.01,2013-05-30 10:50:00,
2013-05-30 06:55:00,61.5,57.6,30.32,West,270,1.5,1.5,87,0.00,,FEW250,0.00,VWS V14.01,2013-05-30 10:55:00,
2013-05-30 07:00:00,61.7,57.8,30.32,West,270,1.5,1.5,87,0.00,,FEW250,0.00,VWS V14.01,2013-05-30 11:00:00,
2013-05-30 07:05:00,61.7,57.8,30.32,West,270,1.5,1.5,87,0.00,,FEW250,0.00,VWS V14.01,2013-05-30 11:05:00,
2013-05-30 07:10:00,62.0,58.1,30.33,West,270,1.5,1.5,87,0.00,,FEW250,0.00,VWS V14.01,2013-05-30 11:10:00,
2013-05-30 07:15:00,62.4,58.5,30.33,West,270,1.5,1.5,87,0.00,,FEW250,0.00,VWS V14.01,2013-05-30 11:15:00,
2013-05-30 07:20:00,63.1,59.1,30.33,West,270,1.5,1.5,87,0.00,,FEW250,0.00,VWS V14.01,2013-05-30 11:20:00,
2013-05-30 07:25:00,63.8,59.8,30.33,West,270,1.5,1.5,87,0.00,,FEW250,0.00,VWS V14.01,2013-05-30 11:25:00,
2013-05-30 07:30:00,64.2,60.2,30.33,West,270,1.5,1.5,87,0.00,,FEW250,0.00,VWS V14.01,2013-05-30 11:30:00,
2013-05-30 07:35:00,64.6,60.3,30.33,West,270,1.5,1.5,86,0.00,,FEW250,0.00,VWS V14.01,2013-05-30 11:35:00,
2013-05-30 07:40:00,65.0,61.4,30.33,West,270,1.5,1.5,88,0.00,,FEW250,0.00,VWS V14.01,2013-05-30 11:40:00,
2013-05-30 07:45:00,65.5,61.6,30.33,West,270,1.5,1.5,87,0.00,,FEW250,0.00,VWS V14.01,2013-05-30 11:45:00,
2013-05-30 07:50:00,65.9,62.3,30.33,West,270,1.5,1.5,88,0.00,,FEW250,0.00,VWS V14.01,2013-05-30 11:50:00,
2013-05-30 07:55:00,66.4,62.5,30.33,West,270,1.5,1.5,87,0.00,,FEW250,0.00,VWS V14.01,2013-05-30 11:55:00,
2013-05-30 08:00:00,67.0,62.7,30.33,West,270,1.5,1.5,86,0.00,,FEW250,0.00,VWS V14.01,2013-05-30 12:00:00,
2013-05-30 08:05:00,67.5,62.9,30.33,West,270,1.5,1.5,85,0.00,,FEW250,0.00,VWS V14.01,2013-05-30 12:05:00,
2013-05-30 08:10:00,67.9,62.9,30.33,West,270,1.5,1.5,84,0.00,,FEW250,0.00,VWS V14.01,2013-05-30 12:10:00,
2013-05-30 08:15:00,68.4,63.4,30.33,West,270,1.5,1.5,84,0.00,,FEW250,0.00,VWS V14.01,2013-05-30 12:15:00,
2013-05-30 08:20:00,68.6,63.6,30.33,West,270,1.5,1.5,84,0.00,,FEW250,0.00,VWS V14.01,2013-05-30 12:20:00,
2013-05-30 08:25:00,68.8,63.4,30.33,West,270,1.5,1.5,83,0.00,,FEW250,0.00,VWS V14.01,2013-05-30 12:25:00,
2013-05-30 08:30:00,69.0,63.6,30.33,West,270,1.5,1.5,83,0.00,,FEW250,0.00,VWS V14.01,2013-05-30 12:30:00,
2013-05-30 08:35:00,69.5,63.8,30.33,West,270,1.5,1.5,82,0.00,,FEW250,0.00,VWS V14.01,2013-05-30 12:35:00,
2013-05-30 08:40:00,69.9,64.2,30.33,West,270,1.5,1.5,82,0.00,,FEW250,0.00,VWS V14.01,2013-05-30 12:40:00,
2013-05-30 08:45:00,70.4,64.6,30.33,West,270,1.5,1.5,82,0.00,,BKN014,0.00,VWS V14.01,2013-05-30 12:45:00,
2013-05-30 08:50:00,70.6,64.5,30.34,West,270,1.5,1.5,81,0.00,,BKN014,0.00,VWS V14.01,2013-05-30 12:50:00,
2013-05-30 08:55:00,70.9,64.4,30.34,West,270,1.5,1.5,80,0.00,,BKN014,0.00,VWS V14.01,2013-05-30 12:55:00,
2013-05-30 09:00:00,71.7,65.2,30.34,West,270,1.5,1.5,80,0.00,,BKN014,0.00,VWS V14.01,2013-05-30 13:00:00,
2013-05-30 09:05:00,72.4,65.9,30.34,West,270,1.5,1.5,80,0.00,,BKN014,0.00,VWS V14.01,2013-05-30 13:05:00,
2013-05-30 09:10:00,72.4,65.9,30.34,West,270,1.5,1.5,80,0.00,,BKN014,0.00,VWS V14.01,2013-05-30 13:10:00,
2013-05-30 09:15:00,72.7,65.4,30.34,West,270,1.5,1.5,78,0.00,,BKN014,0.00,VWS V14.01,2013-05-30 13:15:00,
2013-05-30 09:20:00,72.9,65.6,30.34,West,270,1.5,1.5,78,0.00,,BKN014,0.00,VWS V14.01,2013-05-30 13:20:00,
2013-05-30 09:25:00,72.9,65.6,30.31,West,270,1.5,1.5,78,0.00,,BKN014,0.00,VWS V14.01,2013-05-30 13:25:00,
2013-05-30 09:30:00,72.7,65.4,30.34,West,270,1.5,1.5,78,0.00,,BKN014,0.00,VWS V14.01,2013-05-30 13:30:00,
2013-05-30 09:35:00,73.1,65.4,30.31,West,270,1.5,1.5,77,0.00,,BKN014,0.00,VWS V14.01,2013-05-30 13:35:00,
2013-05-30 09:40:00,73.1,65.4,30.34,West,270,1.5,1.5,77,0.00,,BKN014,0.00,VWS V14.01,2013-05-30 13:40:00,
2013-05-30 09:45:00,73.1,64.7,30.35,West,270,1.5,1.5,75,0.00,,BKN014,0.00,VWS V14.01,2013-05-30 13:45:00,
2013-05-30 09:50:00,73.3,65.2,30.34,West,270,1.5,1.5,76,0.00,,BKN014,0.00,VWS V14.01,2013-05-30 13:50:00,
2013-05-30 09:55:00,73.8,65.7,30.34,West,270,1.5,1.5,76,0.00,,BKN014,0.00,VWS V14.01,2013-05-30 13:55:00,
2013-05-30 10:00:00,74.4,65.6,30.34,West,270,1.5,1.5,74,0.00,,BKN014,0.00,VWS V14.01,2013-05-30 14:00:00,
2013-05-30 10:05:00,74.4,65.6,30.34,West,270,1.5,1.5,74,0.00,,BKN014,0.00,VWS V14.01,2013-05-30 14:05:00,
2013-05-30 10:10:00,74.3,65.1,30.34,West,270,1.5,1.5,73,0.00,,BKN014,0.00,VWS V14.01,2013-05-30 14:10:00,
2013-05-30 10:15:00,73.9,64.8,30.31,SW,225,5.5,6.0,73,0.00,,BKN014,0.00,VWS V14.01,2013-05-30 14:15:00,
2013-05-30 10:20:00,74.2,64.9,30.34,SSW,202,4.0,4.0,73,0.00,,BKN014,0.00,VWS V14.01,2013-05-30 14:20:00,
2013-05-30 10:25:00,74.4,64.4,30.33,NNW,338,2.6,3.3,71,0.00,,BKN014,0.00,VWS V14.01,2013-05-30 14:25:00,
2013-05-30 10:30:00,74.4,64.4,30.31,SSE,158,1.9,1.9,71,0.00,,BKN014,0.00,VWS V14.01,2013-05-30 14:30:00,
2013-05-30 10:35:00,74.7,65.0,30.33,North,0,2.6,2.6,72,0.00,,BKN014,0.00,VWS V14.01,2013-05-30 14:35:00,
2013-05-30 10:40:00,74.8,64.8,30.33,ESE,112,2.6,2.6,71,0.00,,BKN014,0.00,VWS V14.01,2013-05-30 14:40:00,
2013-05-30 10:45:00,75.2,65.2,30.34,WSW,248,4.4,4.4,71,0.00,,BKN014,0.00,VWS V14.01,2013-05-30 14:45:00,
2013-05-30 10:50:00,75.9,65.4,30.33,WSW,248,2.2,2.2,70,0.00,,BKN014,0.00,VWS V14.01,2013-05-30 14:50:00,
2013-05-30 10:55:00,75.9,65.0,30.33,WSW,248,2.2,2.2,69,0.00,,BKN014,0.00,VWS V14.01,2013-05-30 14:55:00,
2013-05-30 11:00:00,76.1,64.4,30.33,SE,135,1.9,3.5,67,0.00,,BKN014,0.00,VWS V14.01,2013-05-30 15:00:00,
2013-05-30 11:05:00,76.2,64.9,30.33,SW,225,2.6,2.6,68,0.00,,SCT014,0.00,VWS V14.01,2013-05-30 15:05:00,
2013-05-30 11:10:00,76.4,64.7,30.33,SW,225,2.6,2.6,67,0.00,,SCT014,0.00,VWS V14.01,2013-05-30 15:10:00,
2013-05-30 11:15:00,77.0,65.2,30.33,SW,225,2.6,2.6,67,0.00,,SCT014,0.00,VWS V14.01,2013-05-30 15:15:00,
2013-05-30 11:20:00,77.7,65.5,30.34,SW,225,2.6,2.6,66,0.00,,SCT014,0.00,VWS V14.01,2013-05-30 15:20:00,
2013-05-30 11:25:00,77.9,64.3,30.33,SW,225,2.6,2.6,63,0.00,,SCT014,0.00,VWS V14.01,2013-05-30 15:25:00,
2013-05-30 11:30:00,78.0,65.3,30.33,SW,225,2.6,2.6,65,0.00,,SCT014,0.00,VWS V14.01,2013-05-30 15:30:00,
2013-05-30 11:35:00,78.0,65.3,30.34,SW,225,2.6,2.6,65,0.00,,SCT014,0.00,VWS V14.01,2013-05-30 15:35:00,
2013-05-30 11:40:00,77.9,64.8,30.34,SW,225,2.6,2.6,64,0.00,,SCT014,0.00,VWS V14.01,2013-05-30 15:40:00,
2013-05-30 11:45:00,77.7,65.0,30.33,SW,225,2.6,2.6,65,0.00,,BKN026,0.00,VWS V14.01,2013-05-30 15:45:00,
2013-05-30 11:50:00,77.9,64.8,30.33,SW,225,2.6,2.6,64,0.00,,BKN026,0.00,VWS V14.01,2013-05-30 15:50:00,
2013-05-30 11:55:00,77.7,62.7,30.33,SW,225,2.6,2.6,60,0.00,,BKN026,0.00,VWS V14.01,2013-05-30 15:55:00,
2013-05-30 12:00:00,77.3,64.2,30.33,SW,225,2.6,2.6,64,0.00,,BKN026,0.00,VWS V14.01,2013-05-30 16:00:00,
2013-05-30 12:05:00,77.5,63.5,30.33,SW,225,2.6,2.6,62,0.00,,SCT028,0.00,VWS V14.01,2013-05-30 16:05:00,
2013-05-30 12:10:00,77.7,63.7,30.33,SW,225,2.6,2.6,62,0.00,,SCT028,0.00,VWS V14.01,2013-05-30 16:10:00,
2013-05-30 12:15:00,78.2,64.1,30.32,SW,225,2.6,2.6,62,0.00,,SCT028,0.00,VWS V14.01,2013-05-30 16:15:00,
2013-05-30 12:20:00,78.8,65.2,30.32,SW,225,2.6,2.6,63,0.00,,SCT028,0.00,VWS V14.01,2013-05-30 16:20:00,
2013-05-30 12:25:00,79.1,63.1,30.32,SW,225,2.6,2.6,58,0.00,,SCT028,0.00,VWS V14.01,2013-05-30 16:25:00,
2013-05-30 12:30:00,79.3,63.7,30.32,SW,225,6.6,6.6,59,0.00,,SCT028,0.00,VWS V14.01,2013-05-30 16:30:00,
2013-05-30 12:35:00,79.7,64.1,30.32,SSW,202,5.5,5.5,59,0.00,,SCT028,0.00,VWS V14.01,2013-05-30 16:35:00,
2013-05-30 12:40:00,79.7,62.1,30.31,SSW,202,5.5,5.5,55,0.00,,SCT028,0.00,VWS V14.01,2013-05-30 16:40:00,
2013-05-30 12:45:00,79.8,63.7,30.31,SSW,202,5.5,5.5,58,0.00,,SCT028,0.00,VWS V14.01,2013-05-30 16:45:00,
2013-05-30 12:50:00,80.2,64.1,30.31,SSW,202,5.5,5.5,58,0.00,,SCT028,0.00,VWS V14.01,2013-05-30 16:50:00,
2013-05-30 12:55:00,80.2,63.6,30.31,SSW,202,5.5,5.5,57,0.00,,SCT028,0.00,VWS V14.01,2013-05-30 16:55:00,
2013-05-30 13:00:00,80.2,63.1,30.31,SSW,202,5.5,5.5,56,0.00,,SCT028,0.00,VWS V14.01,2013-05-30 17:00:00,
2013-05-30 13:05:00,80.4,62.8,30.31,SSW,202,5.5,5.5,55,0.00,,FEW028,0.00,VWS V14.01,2013-05-30 17:05:00,
2013-05-30 13:10:00,80.9,63.7,30.31,SSW,202,5.5,5.5,56,0.00,,FEW028,0.00,VWS V14.01,2013-05-30 17:10:00,
2013-05-30 13:15:00,81.1,62.3,30.30,SSW,202,5.5,5.5,53,0.00,,FEW028,0.00,VWS V14.01,2013-05-30 17:15:00,
2013-05-30 13:20:00,81.1,61.3,30.30,SSW,202,5.5,5.5,51,0.00,,FEW028,0.00,VWS V14.01,2013-05-30 17:20:00,
2013-05-30 13:25:00,81.1,62.3,30.30,SSW,202,5.5,5.5,53,0.00,,FEW028,0.00,VWS V14.01,2013-05-30 17:25:00,
2013-05-30 13:30:00,81.3,62.5,30.30,SSW,202,5.5,5.5,53,0.00,,FEW028,0.00,VWS V14.01,2013-05-30 17:30:00,
2013-05-30 13:35:00,81.1,61.8,30.30,SSW,202,5.5,5.5,52,0.00,,FEW028,0.00,VWS V14.01,2013-05-30 17:35:00,
2013-05-30 13:40:00,81.1,61.8,30.30,SSW,202,5.5,5.5,52,0.00,,FEW028,0.00,VWS V14.01,2013-05-30 17:40:00,
2013-05-30 13:45:00,81.3,63.1,30.29,SSW,202,5.5,5.5,54,0.00,,FEW028,0.00,VWS V14.01,2013-05-30 17:45:00,
2013-05-30 13:50:00,81.6,62.3,30.29,SSW,202,5.5,5.5,52,0.00,,FEW028,0.00,VWS V14.01,2013-05-30 17:50:00,
2013-05-30 13:55:00,81.5,61.1,30.28,SSW,202,5.5,5.5,50,0.00,,FEW028,0.00,VWS V14.01,2013-05-30 17:55:00,
2013-05-30 14:00:00,81.6,62.3,30.29,SSW,202,5.5,5.5,52,0.00,,FEW028,0.00,VWS V14.01,2013-05-30 18:00:00,
2013-05-30 14:05:00,81.6,61.7,30.28,SSW,202,5.5,5.5,51,0.00,,CLR,0.00,VWS V14.01,2013-05-30 18:05:00,
2013-05-30 14:10:00,82.2,62.8,30.28,SSW,202,5.5,5.5,52,0.00,,CLR,0.00,VWS V14.01,2013-05-30 18:10:00,
2013-05-30 14:15:00,82.4,60.1,30.28,SSW,202,5.5,5.5,47,0.00,,CLR,0.00,VWS V14.01,2013-05-30 18:15:00,
2013-05-30 14:20:00,82.7,61.6,30.28,SSW,202,5.5,5.5,49,0.00,,CLR,0.00,VWS V14.01,2013-05-30 18:20:00,
2013-05-30 14:25:00,82.4,60.7,30.28,SSW,202,5.5,5.5,48,0.00,,CLR,0.00,VWS V14.01,2013-05-30 18:25:00,
2013-05-30 14:30:00,82.4,61.9,30.28,SSW,202,5.5,5.5,50,0.00,,CLR,0.00,VWS V14.01,2013-05-30 18:30:00,
2013-05-30 14:35:00,83.1,63.1,30.27,SSW,202,5.5,5.5,51,0.00,,CLR,0.00,VWS V14.01,2013-05-30 18:35:00,
2013-05-30 14:40:00,83.3,62.7,30.27,SSW,202,5.5,5.5,50,0.00,,CLR,0.00,VWS V14.01,2013-05-30 18:40:00,
2013-05-30 14:45:00,83.8,62.6,30.27,SSW,202,5.5,5.5,49,0.00,,CLR,0.00,VWS V14.01,2013-05-30 18:45:00,
2013-05-30 14:50:00,83.8,61.4,30.27,SSW,202,5.5,5.5,47,0.00,,CLR,0.00,VWS V14.01,2013-05-30 18:50:00,
2013-05-30 14:55:00,83.3,60.3,30.27,SSW,202,5.5,5.5,46,0.00,,CLR,0.00,VWS V14.01,2013-05-30 18:55:00,
2013-05-30 15:00:00,83.3,62.1,30.27,SSW,202,5.5,5.5,49,0.00,,CLR,0.00,VWS V14.01,2013-05-30 19:00:00,
2013-05-30 15:05:00,84.4,63.2,30.27,SSW,202,5.5,5.5,49,0.00,,SCT250,0.00,VWS V14.01,2013-05-30 19:05:00,
2013-05-30 15:10:00,85.1,63.3,30.26,NNE,22,5.3,5.3,48,0.00,,SCT250,0.00,VWS V14.01,2013-05-30 19:10:00,
2013-05-30 15:15:00,85.5,63.0,30.26,SW,225,7.1,7.1,47,0.00,,SCT250,0.00,VWS V14.01,2013-05-30 19:15:00,
2013-05-30 15:20:00,85.5,63.0,30.26,SW,225,7.1,7.1,47,0.00,,SCT250,0.00,VWS V14.01,2013-05-30 19:20:00,
2013-05-30 15:25:00,85.5,63.0,30.26,SW,225,7.1,7.1,47,0.00,,SCT250,0.00,VWS V14.01,2013-05-30 19:25:00,
2013-05-30 15:30:00,85.5,63.0,30.25,SW,225,7.1,7.1,47,0.00,,SCT250,0.00,VWS V14.01,2013-05-30 19:30:00,
2013-05-30 15:35:00,85.1,60.8,30.25,SW,225,7.1,7.1,44,0.00,,SCT250,0.00,VWS V14.01,2013-05-30 19:35:00,
2013-05-30 15:40:00,85.5,63.0,30.22,SW,225,7.1,7.1,47,0.00,,SCT250,0.00,VWS V14.01,2013-05-30 19:40:00,
2013-05-30 15:45:00,85.3,62.2,30.25,SW,225,7.1,7.1,46,0.00,,SCT250,0.00,VWS V14.01,2013-05-30 19:45:00,
2013-05-30 15:50:00,84.8,61.8,30.25,SW,225,7.1,7.1,46,0.00,,SCT250,0.00,VWS V14.01,2013-05-30 19:50:00,
2013-05-30 15:55:00,84.8,61.8,30.25,SW,225,7.1,7.1,46,0.00,,SCT250,0.00,VWS V14.01,2013-05-30 19:55:00,
2013-05-30 16:00:00,84.4,62.0,30.25,SW,225,7.1,7.1,47,0.00,,SCT250,0.00,VWS V14.01,2013-05-30 20:00:00,
2013-05-30 16:05:00,84.4,61.4,30.25,SW,225,7.1,7.1,46,0.00,,BKN250,0.00,VWS V14.01,2013-05-30 20:05:00,
2013-05-30 16:10:00,84.8,62.4,30.24,SW,225,7.1,7.1,47,0.00,,BKN250,0.00,VWS V14.01,2013-05-30 20:10:00,
2013-05-30 16:15:00,85.0,62.0,30.24,SW,225,7.1,7.1,46,0.00,,BKN250,0.00,VWS V14.01,2013-05-30 20:15:00,
2013-05-30 16:20:00,84.8,60.5,30.24,SW,225,7.1,7.1,44,0.00,,BKN250,0.00,VWS V14.01,2013-05-30 20:20:00,
2013-05-30 16:25:00,84.8,61.8,30.24,SW,225,7.1,7.1,46,0.00,,BKN250,0.00,VWS V14.01,2013-05-30 20:25:00,
2013-05-30 16:30:00,84.4,61.4,30.24,SW,225,7.1,7.1,46,0.00,,BKN250,0.00,VWS V14.01,2013-05-30 20:30:00,
2013-05-30 16:35:00,85.0,63.2,30.24,SW,225,7.1,7.1,48,0.00,,BKN250,0.00,VWS V14.01,2013-05-30 20:35:00,
2013-05-30 16:40:00,85.5,63.0,30.24,WSW,248,4.6,4.6,47,0.00,,BKN250,0.00,VWS V14.01,2013-05-30 20:40:00,
2013-05-30 16:45:00,86.0,63.5,30.24,SW,225,7.5,7.5,47,0.00,,BKN250,0.00,VWS V14.01,2013-05-30 20:45:00,
2013-05-30 16:50:00,86.0,61.6,30.24,WSW,248,7.1,7.1,44,0.00,,BKN250,0.00,VWS V14.01,2013-05-30 20:50:00,
2013-05-30 16:55:00,85.5,62.4,30.24,WSW,248,7.1,7.1,46,0.00,,BKN250,0.00,VWS V14.01,2013-05-30 20:55:00,
2013-05-30 17:00:00,85.3,62.2,30.23,WSW,248,7.1,7.1,46,0.00,,BKN250,0.00,VWS V14.01,2013-05-30 21:00:00,
2013-05-30 17:05:00,85.0,62.0,30.24,WSW,248,7.1,7.1,46,0.00,,CLR,0.00,VWS V14.01,2013-05-30 21:05:00,
2013-05-30 17:10:00,85.1,63.3,30.23,WSW,248,7.1,7.1,48,0.00,,CLR,0.00,VWS V14.01,2013-05-30 21:10:00,
2013-05-30 17:15:00,85.1,61.4,30.20,WSW,248,7.1,7.1,45,0.00,,CLR,0.00,VWS V14.01,2013-05-30 21:15:00,
2013-05-30 17:20:00,85.0,62.6,30.20,WSW,248,7.1,7.1,47,0.00,,CLR,0.00,VWS V14.01,2013-05-30 21:20:00,
2013-05-30 17:25:00,84.7,62.8,30.20,WSW,248,7.1,7.1,48,0.00,,CLR,0.00,VWS V14.01,2013-05-30 21:25:00,
2013-05-30 17:30:00,84.4,62.6,30.20,WSW,248,7.1,7.1,48,0.00,,CLR,0.00,VWS V14.01,2013-05-30 21:30:00,
2013-05-30 17:35:00,84.2,61.2,30.20,WSW,248,7.1,7.1,46,0.00,,CLR,0.00,VWS V14.01,2013-05-30 21:35:00,
2013-05-30 17:40:00,84.2,62.9,30.20,WSW,248,7.1,7.1,49,0.00,,CLR,0.00,VWS V14.01,2013-05-30 21:40:00,
2013-05-30 17:45:00,84.2,61.8,30.20,WSW,248,7.1,7.1,47,0.00,,CLR,0.00,VWS V14.01,2013-05-30 21:45:00,
2013-05-30 17:50:00,84.2,61.8,30.20,WSW,248,7.1,7.1,47,0.00,,CLR,0.00,VWS V14.01,2013-05-30 21:50:00,
2013-05-30 17:55:00,84.2,61.8,30.20,WSW,248,7.1,7.1,47,0.00,,CLR,0.00,VWS V14.01,2013-05-30 21:55:00,
2013-05-30 18:00:00,84.2,61.8,30.23,WSW,248,7.1,7.1,47,0.00,,CLR,0.00,VWS V14.01,2013-05-30 22:00:00,
2013-05-30 18:05:00,84.2,62.5,30.23,WSW,248,7.1,7.1,48,0.00,,SCT250,0.00,VWS V14.01,2013-05-30 22:05:00,
2013-05-30 18:10:00,84.2,61.8,30.23,WSW,248,7.1,7.1,47,0.00,,SCT250,0.00,VWS V14.01,2013-05-30 22:10:00,
2013-05-30 18:15:00,84.2,61.8,30.23,WSW,248,7.1,7.1,47,0.00,,SCT250,0.00,VWS V14.01,2013-05-30 22:15:00,
2013-05-30 18:20:00,84.2,61.8,30.23,WSW,248,7.1,7.1,47,0.00,,SCT250,0.00,VWS V14.01,2013-05-30 22:20:00,
2013-05-30 18:25:00,83.9,62.8,30.20,WSW,248,7.1,7.1,49,0.00,,SCT250,0.00,VWS V14.01,2013-05-30 22:25:00,
2013-05-30 18:30:00,83.8,62.6,30.23,WSW,248,7.1,7.1,49,0.00,,SCT250,0.00,VWS V14.01,2013-05-30 22:30:00,
2013-05-30 18:35:00,83.9,61.6,30.23,WSW,248,7.1,7.1,47,0.00,,SCT250,0.00,VWS V14.01,2013-05-30 22:35:00,
2013-05-30 18:40:00,83.6,61.2,30.23,WSW,248,7.1,7.1,47,0.00,,SCT250,0.00,VWS V14.01,2013-05-30 22:40:00,
2013-05-30 18:45:00,83.4,61.6,30.23,WSW,248,7.1,7.1,48,0.00,,SCT250,0.00,VWS V14.01,2013-05-30 22:45:00,
2013-05-30 18:50:00,83.4,61.6,30.23,WSW,248,7.1,7.1,48,0.00,,SCT250,0.00,VWS V14.01,2013-05-30 22:50:00,
2013-05-30 18:55:00,83.4,61.6,30.23,WSW,248,7.1,7.1,48,0.00,,SCT250,0.00,VWS V14.01,2013-05-30 22:55:00,
2013-05-30 19:00:00,83.1,61.4,30.23,WSW,248,7.1,7.1,48,0.00,,SCT250,0.00,VWS V14.01,2013-05-30 23:00:00,
2013-05-30 19:05:00,82.9,61.2,30.23,WSW,248,7.1,7.1,48,0.00,,SCT250,0.00,VWS V14.01,2013-05-30 23:05:00,
2013-05-30 19:10:00,82.4,61.9,30.23,WSW,248,7.1,7.1,50,0.00,,SCT250,0.00,VWS V14.01,2013-05-30 23:10:00,
2013-05-30 19:15:00,81.8,61.3,30.23,WSW,248,7.1,7.1,50,0.00,,SCT250,0.00,VWS V14.01,2013-05-30 23:15:00,
2013-05-30 19:20:00,81.5,61.6,30.20,WSW,248,7.1,7.1,51,0.00,,SCT250,0.00,VWS V14.01,2013-05-30 23:20:00,
2013-05-30 19:25:00,81.3,61.4,30.23,WSW,248,7.1,7.1,51,0.00,,SCT250,0.00,VWS V14.01,2013-05-30 23:25:00,
2013-05-30 19:30:00,81.3,62.0,30.23,WSW,248,7.1,7.1,52,0.00,,SCT250,0.00,VWS V14.01,2013-05-30 23:30:00,
2013-05-30 19:35:00,80.9,61.6,30.23,WSW,248,7.1,7.1,52,0.00,,SCT250,0.00,VWS V14.01,2013-05-30 23:35:00,
2013-05-30 19:40:00,80.4,61.7,30.23,WSW,248,7.1,7.1,53,0.00,,SCT250,0.00,VWS V14.01,2013-05-30 23:40:00,
2013-05-30 19:45:00,80.2,61.5,30.23,WSW,248,7.1,7.1,53,0.00,,SCT250,0.00,VWS V14.01,2013-05-30 23:45:00,
2013-05-30 19:50:00,80.0,61.9,30.23,WSW,248,7.1,7.1,54,0.00,,SCT250,0.00,VWS V14.01,2013-05-30 23:50:00,
2013-05-30 19:55:00,79.7,61.6,30.23,WSW,248,7.1,7.1,54,0.00,,SCT250,0.00,VWS V14.01,2013-05-30 23:55:00,
2013-05-30 20:00:00,79.5,61.9,30.23,WSW,248,7.1,7.1,55,0.00,,SCT250,0.00,VWS V14.01,2013-05-31 00:00:00,
2013-05-30 20:05:00,79.3,61.8,30.23,WSW,248,7.1,7.1,55,0.00,,BKN250,0.00,VWS V14.01,2013-05-31 00:05:00,
2013-05-30 20:10:00,78.9,61.9,30.23,WSW,248,7.1,7.1,56,0.00,,BKN250,0.00,VWS V14.01,2013-05-31 00:10:00,
2013-05-30 20:15:00,78.6,62.1,30.22,WSW,248,7.1,7.1,57,0.00,,BKN250,0.00,VWS V14.01,2013-05-31 00:15:00,
2013-05-30 20:20:00,78.2,61.8,30.22,WSW,248,7.1,7.1,57,0.00,,BKN250,0.00,VWS V14.01,2013-05-31 00:20:00,
2013-05-30 20:25:00,77.5,62.1,30.22,WSW,248,7.1,7.1,59,0.00,,BKN250,0.00,VWS V14.01,2013-05-31 00:25:00,
2013-05-30 20:30:00,77.1,62.2,30.22,WSW,248,7.1,7.1,60,0.00,,BKN250,0.00,VWS V14.01,2013-05-31 00:30:00,
2013-05-30 20:35:00,76.6,62.2,30.22,WSW,248,7.1,7.1,61,0.00,,BKN250,0.00,VWS V14.01,2013-05-31 00:35:00,
2013-05-30 20:40:00,76.2,61.8,30.22,WSW,248,7.1,7.1,61,0.00,,BKN250,0.00,VWS V14.01,2013-05-31 00:40:00,
2013-05-30 20:45:00,75.9,62.0,30.22,WSW,248,7.1,7.1,62,0.00,,BKN250,0.00,VWS V14.01,2013-05-31 00:45:00,
2013-05-30 20:50:00,75.7,62.3,30.22,WSW,248,7.1,7.1,63,0.00,,BKN250,0.00,VWS V14.01,2013-05-31 00:50:00,
2013-05-30 20:55:00,75.3,62.3,30.22,WSW,248,7.1,7.1,64,0.00,,BKN250,0.00,VWS V14.01,2013-05-31 00:55:00,
2013-05-30 21:00:00,75.0,62.0,30.21,WSW,248,7.1,7.1,64,0.00,,BKN250,0.00,VWS V14.01,2013-05-31 01:00:00,
2013-05-30 21:05:00,74.3,61.8,30.22,WSW,248,7.1,7.1,65,0.00,,SCT250,0.00,VWS V14.01,2013-05-31 01:05:00,
2013-05-30 21:10:00,74.2,62.1,30.22,WSW,248,7.1,7.1,66,0.00,,SCT250,0.00,VWS V14.01,2013-05-31 01:10:00,
2013-05-30 21:15:00,73.5,61.4,30.23,WSW,248,7.1,7.1,66,0.00,,SCT250,0.00,VWS V14.01,2013-05-31 01:15:00,
2013-05-30 21:20:00,73.3,61.7,30.23,WSW,248,7.1,7.1,67,0.00,,SCT250,0.00,VWS V14.01,2013-05-31 01:20:00,
2013-05-30 21:25:00,72.7,62.3,30.19,WSW,248,7.1,7.1,70,0.00,,SCT250,0.00,VWS V14.01,2013-05-31 01:25:00,
2013-05-30 21:30:00,72.2,61.8,30.23,WSW,248,7.1,7.1,70,0.00,,SCT250,0.00,VWS V14.01,2013-05-31 01:30:00,
2013-05-30 21:35:00,72.2,62.3,30.23,WSW,248,7.1,7.1,71,0.00,,SCT250,0.00,VWS V14.01,2013-05-31 01:35:00,
2013-05-30 21:40:00,71.8,61.9,30.23,WSW,248,7.1,7.1,71,0.00,,SCT250,0.00,VWS V14.01,2013-05-31 01:40:00,
2013-05-30 21:45:00,71.7,61.8,30.23,WSW,248,7.1,7.1,71,0.00,,SCT250,0.00,VWS V14.01,2013-05-31 01:45:00,
2013-05-30 21:50:00,71.5,62.0,30.23,WSW,248,7.1,7.1,72,0.00,,SCT250,0.00,VWS V14.01,2013-05-31 01:50:00,
2013-05-30 21:55:00,70.9,61.0,30.23,WSW,248,7.1,7.1,71,0.00,,SCT250,0.00,VWS V14.01,2013-05-31 01:55:00,
2013-05-30 22:00:00,70.9,61.4,30.24,WSW,248,7.1,7.1,72,0.00,,SCT250,0.00,VWS V14.01,2013-05-31 02:00:00,
2013-05-30 22:05:00,70.8,61.7,30.24,WSW,248,7.1,7.1,73,0.00,,FEW250,0.00,VWS V14.01,2013-05-31 02:05:00,
2013-05-30 22:10:00,70.8,61.7,30.25,WSW,248,7.1,7.1,73,0.00,,FEW250,0.00,VWS V14.01,2013-05-31 02:10:00,
2013-05-30 22:15:00,70.4,61.3,30.25,WSW,248,7.1,7.1,73,0.00,,FEW250,0.00,VWS V14.01,2013-05-31 02:15:00,
2013-05-30 22:20:00,70.4,61.7,30.25,WSW,248,7.1,7.1,74,0.00,,FEW250,0.00,VWS V14.01,2013-05-31 02:20:00,
2013-05-30 22:25:00,70.0,61.3,30.25,WSW,248,7.1,7.1,74,0.00,,FEW250,0.00,VWS V14.01,2013-05-31 02:25:00,
2013-05-30 22:30:00,69.9,61.6,30.25,WSW,248,7.1,7.1,75,0.00,,FEW250,0.00,VWS V14.01,2013-05-31 02:30:00,
2013-05-30 22:35:00,69.5,61.2,30.25,WSW,248,7.1,7.1,75,0.00,,FEW250,0.00,VWS V14.01,2013-05-31 02:35:00,
2013-05-30 22:40:00,69.3,61.0,30.25,WSW,248,7.1,7.1,75,0.00,,FEW250,0.00,VWS V14.01,2013-05-31 02:40:00,
2013-05-30 22:45:00,69.1,61.2,30.25,WSW,248,7.1,7.1,76,0.00,,FEW250,0.00,VWS V14.01,2013-05-31 02:45:00,
2013-05-30 22:50:00,69.1,61.6,30.25,WSW,248,7.1,7.1,77,0.00,,FEW250,0.00,VWS V14.01,2013-05-31 02:50:00,
2013-05-30 22:55:00,68.8,61.3,30.26,WSW,248,7.1,7.1,77,0.00,,FEW250,0.00,VWS V14.01,2013-05-31 02:55:00,
2013-05-30 23:00:00,68.8,61.3,30.25,WSW,248,7.1,7.1,77,0.00,,FEW250,0.00,VWS V14.01,2013-05-31 03:00:00,
2013-05-30 23:05:00,68.8,61.3,30.25,WSW,248,7.1,7.1,77,0.00,,SCT250,0.00,VWS V14.01,2013-05-31 03:05:00,
2013-05-30 23:10:00,68.8,61.7,30.25,WSW,248,7.1,7.1,78,0.00,,SCT250,0.00,VWS V14.01,2013-05-31 03:10:00,
2013-05-30 23:15:00,69.0,62.2,30.25,WSW,248,7.1,7.1,79,0.00,,SCT250,0.00,VWS V14.01,2013-05-31 03:15:00,
2013-05-30 23:20:00,69.7,62.5,30.22,WSW,248,7.1,7.1,78,0.00,,SCT250,0.00,VWS V14.01,2013-05-31 03:20:00,
2013-05-30 23:25:00,70.0,62.5,30.26,WSW,248,7.1,7.1,77,0.00,,SCT250,0.00,VWS V14.01,2013-05-31 03:25:00,
2013-05-30 23:30:00,70.6,62.7,30.26,WSW,248,7.1,7.1,76,0.00,,SCT250,0.00,VWS V14.01,2013-05-31 03:30:00,
2013-05-30 23:35:00,70.9,62.6,30.26,WSW,248,7.1,7.1,75,0.00,,SCT250,0.00,VWS V14.01,2013-05-31 03:35:00,
2013-05-30 23:40:00,71.3,63.0,30.26,WSW,248,7.1,7.1,75,0.00,,SCT250,0.00,VWS V14.01,2013-05-31 03:40:00,
2013-05-30 23:45:00,71.5,62.8,30.26,WSW,248,7.1,7.1,74,0.00,,SCT250,0.00,VWS V14.01,2013-05-31 03:45:00,
2013-05-30 23:50:00,71.7,63.3,30.26,WSW,248,7.1,7.1,75,0.00,,SCT250,0.00,VWS V14.01,2013-05-31 03:50:00,
2013-05-30 23:55:00,72.0,63.6,30.26,WSW,248,7.1,7.1,75,0.00,,SCT250,0.00,VWS V14.01,2013-05-31 03:55:00,